Flag for Brazil Weather past 2 weeks in São Paulo, São Paulo, Brazil

Now
68 °F

Sunny.


Feels Like: 68 °F
Forecast: 62 / 77 °F
Wind: 8 mph from North

Location: Sao Paulo Airport

Current Time: Jul 24, 2014 at 8:35:01 AM

Latest Report: Jul 24, 2014 at 8:00 AM


Visibility: 10 mi

Pressure: 30.07 "Hg

Humidity: 46%

Dew point: 46 °F

Location of São PauloLocation

Historic Weather in São Paulo — Graph

°F

São Paulo temperature yesterday

Maximum temperature yesterday: 79 °F (at 2:00 PM)
Minimum temperature yesterday: 59 °F (at 6:00 AM)
Average temperature yesterday: 70 °F

Past Weeks' High & Low Weather Summary

 TemperatureHumidityPressure
High79 °F (Jul 17, 2:00 PM)88% (Jul 9, 6:00 PM)30.42 "Hg (Jul 9, 6:00 PM)
Low52 °F (Jul 20, 6:00 AM)24% (Jul 23, 4:00 PM)30.01 "Hg (Jul 24, 4:00 AM)
Average62 °F69%30.25 "Hg
* Reported Jul 9 10:00 AM — Jul 24 7:00 AM, São Paulo, Weather by CustomWeather, © 2014

Note: Actual official high and low records may vary slightly from our data, if they occured in-between our weather recording intervals... More about our weather records

Advertising

São Paulo weather history for previous 24 hours

 ConditionsComfort  
Time TempWeatherWind HumidityBarometerVisibility
7:00 AM
Jul 24
66 °FSunny.6 mph46%30.04 "Hg10 mi
6:00 AM66 °FSunny.7 mph49%30.01 "Hg10 mi
5:00 AM64 °FClear.8 mph49%30.01 "Hg10 mi
4:00 AM66 °FClear.6 mph46%30.01 "Hg10 mi
3:00 AM66 °FClear.6 mph43%30.04 "Hg10 mi
2:00 AM66 °FClear.6 mph43%30.07 "Hg10 mi
1:00 AM68 °FClear.7 mph40%30.07 "Hg10 mi
12:00 AM68 °FClear.3 mph40%30.07 "Hg10 mi
11:00 PM
Jul 23
68 °FClear.7 mph40%30.07 "Hg10 mi
10:00 PM70 °FClear.6 mph38%30.09 "Hg10 mi
9:00 PM72 °FClear.8 mph36%30.07 "Hg10 mi
8:00 PM72 °FClear.6 mph36%30.09 "Hg10 mi
7:00 PM75 °FClear.6 mph29%30.07 "Hg10 mi
6:00 PM75 °FClear.6 mph29%30.07 "Hg10 mi
5:00 PM79 °FClear.10 mph26%30.07 "Hg10 mi
4:00 PM79 °FSunny.12 mph24%30.07 "Hg10 mi
3:00 PM79 °FSunny.8 mph30%30.07 "Hg10 mi
2:00 PM79 °FSunny.10 mph28%30.09 "Hg10 mi
1:00 PM77 °FSunny.8 mph34%30.12 "Hg10 mi
12:00 PM75 °FSunny.8 mph34%30.18 "Hg10 mi
11:00 AM70 °FSunny.8 mph46%30.21 "Hg10 mi
10:00 AM66 °FSunny.7 mph49%30.21 "Hg10 mi
Weather by CustomWeather, © 2014

See weather overviewHow to use our weather pages